Regional Weather Roundup
Issued by NWS

Home | Current Version | Previous Version | Text Only | Print | Product List | Glossary On
Versions: 1 2 3 4 5 6 7 8 9 10 11 12 13 14 15 16 17 18 19 20 21 22 23 24 25 26 27 28 29 30 31 32 33 34 35 36 37 38 39 40 41 42 43 44 45 46 47 48 49 50
000
ASUS46 KLOX 232112
RWRCA

SOUTHERN CALIFORNIA WEATHER ROUNDUP
NATIONAL WEATHER SERVICE OXNARD CALIFORNIA
100 PM PST SUN NOV 23 2014

NOTE: "FAIR" INDICATES FEW OR NO CLOUDS BELOW 12,000 FEET WITH NO
SIGNIFICANT WEATHER AND/OR OBSTRUCTIONS TO VISIBILITY.

  -  STATIONS PRECEEDED BY AN ASTERISK (*) ARE NOT NWS OR FAA
     STATIONS AND ARE NOT SUBJECT TO NWS AND FAA QUALITY CONTROL.

CAZ041-042-087-232200-
LA AND ORANGE COUNTY COASTAL AREAS


CITY           SKY/WX    TMP DP  RH WIND       PRES   REMARKS
L.A. DOWNTOWN  SUNNY     78  40  25 CALM      30.06F
L.A. AIRPORT   MOSUNNY   74  38  27 S12       30.07F
LONG BEACH     SUNNY     76  36  23 CALM      30.07F

CITY           SKY/WX    TMP DP  RH WIND       PRES   REMARKS
AVALON           N/A     77 N/A N/A MISG        N/A
FULLERTON      SUNNY     79  32  18 CALM      30.05F
*GETTY CENTER    N/A     70  -6   5 N17G35      N/A
HAWTHORNE      SUNNY     76  36  23 SW8       30.07F
*LOS ALAMITOS  MOSUNNY   78  34  20 VRB3      30.06F
*REDONDO BEACH   N/A     75  45  33 CALM      30.06F
SANTA ANA      MOSUNNY   85  -3   3 NE13G28   30.05F
STA MONICA APT SUNNY     80   8   6 N15G29    30.06F
TORRANCE       SUNNY     79  32  18 W5        30.08F
*UCLA            N/A     75  12   9 NW22      30.05F

$$

CAZ547-548-048-232200-
LA COUNTY VALLEYS AND INLAND EMPIRE


CITY           SKY/WX    TMP DP  RH WIND       PRES   REMARKS
BURBANK        SUNNY     77   2   5 E15       30.10F
VAN NUYS       SUNNY     75  10   8 N22G33    30.11F

CITY           SKY/WX    TMP DP  RH WIND       PRES   REMARKS
CORONA AIRPORT CLEAR     77   0   5 NE21G29   30.09F
*CHATSWORTH      N/A     73  27  18 E2        30.10F
CHINO          MOSUNNY   78  10   7 NE9G22    30.07F
MARCH AFB      SUNNY     74   7   7 NW6       30.10F
*NORTHRIDGE      N/A     72  12  10 VRB10G23    N/A
ONTARIO        MOSUNNY   79  14   8 N10G18    30.07F
RIVERSIDE      SUNNY     75   6   7 N17G35    30.08F
SAN BERNARDINO MOSUNNY   75  -2   5 N29G41    30.08F
*SAN GABRIEL     N/A     77  31  18 CALM      30.04F
*WHITEMAN AP   MOSUNNY   73  10   9 N12G28    30.15F
*WOODLAND HILL   N/A    N/A N/A N/A N13         N/A

$$

CAZ054-055-232200-
LA AND SAN BERNARDINO COUNTY MOUNTAINS


CITY           SKY/WX    TMP DP  RH WIND       PRES   REMARKS
*BIG BEAR AIRP CLEAR     45  -4  13 E16       30.31R
MT WILSON NWS    N/A     59  -2   8 MISG        N/A
SANDBERG       SUNNY     56  20  24 NE15G26   30.27S

$$

CAZ028-029-059-060-099-232200-
ANTELOPE VALLEY AND SURROUNDING AREAS


CITY           SKY/WX    TMP DP  RH WIND       PRES   REMARKS
LANCASTER      SUNNY     63  17  17 NE15      30.25F
PALMDALE       SUNNY     64  11  12 E20       30.24F

CITY           SKY/WX    TMP DP  RH WIND       PRES   REMARKS
29 PALMS       SUNNY     65  12  12 N16G24    30.28F
BARSTOW/DAGGET SUNNY     66   5   9 NE10      30.24F
BISHOP         MOSUNNY   60  -1   8 NW6       30.23F
CHINA LAKE     SUNNY     63  15  15 SE7       30.24F
EDWARDS AFB    MOSUNNY   63  17  16 NE7       30.23F
MOJAVE         FAIR      59  18  20 NE7       30.26F
NEEDLES        SUNNY     70  10  10 N20G28    30.19F
VICTORVILLE    SUNNY     61  10  13 NE5       30.26F

$$

CAZ039-040-232200-
VENTURA AND SANTA BARBARA COUNTY COAST


CITY           SKY/WX    TMP DP  RH WIND       PRES   REMARKS
CAMARILLO      SUNNY     80  23  12 NE17G25   30.12F
NWS OXNARD       N/A     79  29  16 CALM      30.12S
OXNARD AIRPORT SUNNY     72  48  42 NW14      30.13S
*POINT MUGU    MOSUNNY   76  27  16 NE18G31   30.12F
SBA APT/GOLETA SUNNY     74  37  26 SW8       30.14F
*SANTA BARBARA   N/A     77  37  24 CALM      30.21F
*VENTURA         N/A     76  44  31 E8        30.17S

$$

CAZ044-045-232200-
VENTURA COUNTY VALLEYS


CITY           SKY/WX    TMP DP  RH WIND       PRES   REMARKS
*SIMI VALLEY     N/A     71  24  17 E12       30.08R
*OJAI            N/A     74  41  30 W3        30.09S
*FILLMORE        N/A     78  37  23 E8        30.02F

$$

CAZ053-232200-
VENTURA COUNTY MOUNTAINS


CITY           SKY/WX    TMP DP  RH WIND       PRES   REMARKS
*LOCKWOOD VLY    N/A     55  21  26 SE5         N/A
*ROSE VALLEY     N/A     68  19  15 MISG        N/A

$$

CAZ034-035-036-232200-
CENTRAL COAST AND SANTA YNEZ VALLEY


CITY           SKY/WX    TMP DP  RH WIND       PRES   REMARKS
SAN LUIS OBISP SUNNY     70  35  27 N9        30.22F
SANTA MARIA    MOSUNNY   75  29  18 N20G25    30.20F

CITY           SKY/WX    TMP DP  RH WIND       PRES   REMARKS
*CAL POLY SLO    N/A     66  41  39 NE12        N/A
*LOMPOC        SUNNY     73  32  21 N10       30.19F
*PISMO BEACH     N/A     71  35  27 NE5       30.21F
*SANTA YNEZ    FAIR      75  19  12 NW9       30.16S

$$

CAZ037-038-051-232200-
SAN LUIS OBISPO COUNTY INTERIOR AND CUYAMA VALLEY


CITY           SKY/WX    TMP DP  RH WIND       PRES   REMARKS
*CUYAMA          N/A     60  29  31 N12       30.24S
PASO ROBLES    SUNNY     63  38  39 W5        30.25F

$$

CAZ032-033-061-232200-
SOUTHERN DESERTS


CITY           SKY/WX    TMP DP  RH WIND       PRES   REMARKS
BLYTHE         MOSUNNY   73   7   7 N26G37    30.12S HAZE
IMPERIAL       PTSUNNY   76  20  12 N17       30.10F
PALM SPRINGS   SUNNY     77   3   5 NE12G21   30.17F
THERMAL        SUNNY     77   7   7 NW7G22    30.12F

$$

ELSEWHERE ACROSS THE WESTERN UNITED STATES AND MEXICO


CITY           SKY/WX    TMP DP  RH WIND       PRES   REMARKS
DENVER, CO     PTSUNNY   41  12  30 N20G28    29.76R WCI  32
GRAND CANYON,  SUNNY     42  -3  15 NW10G24   30.15S
HONOLULU, HI   MOSUNNY   82  64  54 S7        29.99F
KAHULUI, MAUI  MOSUNNY   84  64  51 VRB6      29.98F
LAKE TAHOE, CA PTSUNNY   45  19  35 CALM      30.30F
LAS VEGAS, NV  MOSUNNY   62  12  14 NW12      30.20F
MAMMOTH LAKES, PTSUNNY   50 -15   6 N6        30.28F
MEXICO CITY, M SUNNY     75  27  16 NE5       30.13F
PHOENIX, AZ    MOSUNNY   73  12   9 NW15G21   30.00F
PORTLAND, OR   RAIN      51  47  86 SW13G28   30.24S FOG
RENO, NV       CLOUDY    44  26  49 E5        30.32F
SALT LAKE CITY MOSUNNY   39  22  50 NW15G23   30.22F WCI  31
SAN DIEGO, CA  PTSUNNY   70  53  54 NW9       30.07F
SAN FRANCISCO, PTSUNNY   61  46  57 CALM      30.29F
SAN JOSE, CA   PTSUNNY   62  40  44 W9        30.29F
SEATTLE, WA    PTSUNNY   53  45  74 SW14G23   30.13R
TIJUANA, MEX   CLOUDY    72  46  40 NW9       30.07F

$$

STATION/POSITION TIME  TEMP    WIND        PRES    VSBY  WAVE
                       AIR SEA DIR/SP/G                  HT/PER
                 (UTC) (F)     (DEG/KT/KT) (MB)    (MI)  (FT/S)
POINT ARGUELLO B NOT AVBL
WEST SANTA BARBA 2100   63 61  330/ 17/ 21 1021.0F         9/12
POINT CONCEPTION NOT AVBL
EAST SANTA BARBA 2100          300/  6       N/A
SANTA MONICA BAY 2100   69 66  320/ 10/ 12 1019.8F         4/13



USA.gov is the U.S. government's official web portal to all federal, state and local government web resources and services.